Location: Arpaise
(41.0333°N, 14.7333°E)
Time: 17:15:18
(UTC+00:00)

Cosmos 1844 - Pass Details

Date: 05 July 2020
Orbit: 822 x 868 km, 70.9° (Epoch: 11 August)

Event Time Altitude Azimuth Distance (km) Brightness Sun altitude
Rises 20:18:08 0° 336° (NNW) 3,455 8.4 -15.4°
Reaches altitude 10° 20:20:37 10° 338° (NNW) 2,510 7.4 -15.6°
Maximum altitude 20:26:25 83° 65° (ENE) 868 3.7 -16.3°
Enters shadow 20:29:43 26° 153° (SSE) 1,600 4.6 -16.7°
